Location: Wald
(31.7579°N, 86.6655°W)
Time: 23:05:55
(UTC+00:00)

Cosmos 1241 Rocket - Pass Details

Date: 14 July 2020
Orbit: 935 x 1013 km, 65.8° (Epoch: 12 August)

Event Time Altitude Azimuth Distance (km) Brightness Sun altitude
Rises 08:27:13 0° 329° (NNW) 3,700 7.8 -25.1°
Reaches altitude 10° 08:29:48 10° 327° (NNW) 2,759 7.0 -24.7°
Maximum altitude 08:36:12 65° 247° (WSW) 1,099 4.5 -23.8°
Enters shadow 08:38:43 38° 181° (S) 1,489 5.1 -23.5°
